Alva, OK

12:02 PM CDT on July 24, 2017 (GMT -0500)
Alva Regional

Weather History for KAVK - November, 2013

Change the Weather History Date:

Friday, November 22, 2013

  Actual Average Record
Temperature  
Mean Temperature 28 °F -  
Max Temperature 32 °F 55 °F 81 °F (1966)
Min Temperature 24 °F 32 °F 19 °F (2007)
Degree Days  
Heating Degree Days 37    
Moisture  
Dew Point 16 °F    
Average Humidity 65    
Maximum Humidity 86    
Minimum Humidity 44    
Precipitation  
Precipitation 0.00 in - - ()
Sea Level Pressure  
Sea Level Pressure 30.60 in    
Wind  
Wind Speed 19 mph (North)    
Max Wind Speed 26 mph    
Max Gust Speed 32 mph    
Visibility 10 miles    
Events Rain    
Averages and records for this station are not official NWS values.
T = Trace of Precipitation, MM = Missing Value Source: NWS Daily Summary

Daily Weather History Graph

Daily Weather History Graph

Search for Another Location

Airport or City:

Trip Planner

Search our weather history database for the weather conditions in past years. The results will help you decide how hot, cold, wet, or windy it might be!

Date:

Astronomy

Nov. 22, 2013 Rise Set
Actual Time 7:20 AM CST 5:21 PM CST
Civil Twilight 6:52 AM CST 5:49 PM CST
Nautical Twilight 6:20 AM CST 6:20 PM CST
Astronomical Twilight 5:49 AM CST 6:51 PM CST
Moon 9:52 PM CST (11/22) 11:06 AM CST (11/22)
Length of Visible Light 10h 57m
Length of Day
10h 01m
Waning Gibbous, 78% of the Moon is Illuminated
Nov 22
Waning Gibbous
Nov 25
Last Quarter
Dec 2
New
Dec 9
First Quarter
Dec 17
Full

Hourly Weather History & Observations

Time (CST) Temp. Windchill Dew Point Humidity Pressure Visibility Wind Dir Wind Speed Gust Speed Precip Events Conditions
12:10 AM 26.6 °F 11.1 °F 19.4 °F 74% 30.53 in 10.0 mi North 26.5 mph 31.1 mph N/A   Overcast
12:30 AM 26.6 °F 12.7 °F 17.6 °F 69% 30.53 in 10.0 mi North 20.7 mph 27.6 mph N/A   Overcast
12:50 AM 24.8 °F 9.3 °F 19.4 °F 80% 30.54 in 10.0 mi North 24.2 mph 31.1 mph N/A   Overcast
1:10 AM 24.8 °F 10.3 °F 17.6 °F 74% 30.55 in 10.0 mi North 20.7 mph 31.1 mph N/A   Overcast
1:30 AM 24.8 °F 11.5 °F 17.6 °F 74% 30.55 in 10.0 mi North 17.3 mph 31.1 mph N/A   Overcast
1:50 AM 24.8 °F 9.3 °F 17.6 °F 74% 30.54 in 10.0 mi North 24.2 mph 31.1 mph N/A   Overcast
2:10 AM 24.8 °F 11.5 °F 17.6 °F 74% 30.55 in 10.0 mi North 17.3 mph 29.9 mph N/A   Overcast
2:30 AM 24.8 °F 8.7 °F 17.6 °F 74% 30.54 in 10.0 mi North 26.5 mph 32.2 mph N/A   Overcast
2:50 AM 24.8 °F 11.1 °F 17.6 °F 74% 30.55 in 10.0 mi North 18.4 mph 26.5 mph N/A   Overcast
3:10 AM 24.8 °F 10.0 °F 15.8 °F 69% 30.54 in 10.0 mi North 21.9 mph 29.9 mph N/A   Overcast
3:30 AM 24.8 °F 11.9 °F 17.6 °F 74% 30.56 in 10.0 mi North 16.1 mph 29.9 mph N/A   Overcast
3:50 AM 24.8 °F 11.5 °F 17.6 °F 74% 30.56 in 10.0 mi North 17.3 mph 26.5 mph N/A   Overcast
4:10 AM 24.8 °F 10.7 °F 15.8 °F 69% 30.56 in 10.0 mi North 19.6 mph 24.2 mph N/A   Overcast
4:30 AM 24.8 °F 11.5 °F 15.8 °F 69% 30.57 in 10.0 mi North 17.3 mph - N/A   Overcast
4:50 AM 24.8 °F 10.7 °F 15.8 °F 69% 30.56 in 10.0 mi North 19.6 mph 31.1 mph N/A   Overcast
5:10 AM 24.8 °F 11.1 °F 15.8 °F 69% 30.56 in 10.0 mi North 18.4 mph 24.2 mph N/A   Overcast
5:30 AM 24.8 °F 10.7 °F 15.8 °F 69% 30.56 in 10.0 mi North 19.6 mph 27.6 mph N/A   Overcast
5:50 AM 24.8 °F 11.5 °F 17.6 °F 74% 30.58 in 10.0 mi North 17.3 mph 21.9 mph N/A   Overcast
6:10 AM 24.8 °F 10.7 °F 17.6 °F 74% 30.58 in 10.0 mi North 19.6 mph - N/A   Overcast
6:30 AM 26.6 °F 13.8 °F 17.6 °F 69% 30.58 in 10.0 mi North 17.3 mph 25.3 mph N/A   Overcast
6:50 AM 24.8 °F 10.0 °F 15.8 °F 69% 30.58 in 10.0 mi North 21.9 mph 28.8 mph N/A   Overcast
7:10 AM 24.8 °F 9.6 °F 15.8 °F 69% 30.58 in 10.0 mi North 23.0 mph 28.8 mph N/A   Mostly Cloudy
7:30 AM 24.8 °F 10.3 °F 15.8 °F 69% 30.60 in 10.0 mi North 20.7 mph 27.6 mph N/A   Scattered Clouds
7:50 AM 24.8 °F 11.9 °F 15.8 °F 69% 30.61 in 10.0 mi North 16.1 mph 27.6 mph N/A   Overcast
8:10 AM 24.8 °F 11.1 °F 15.8 °F 69% 30.62 in 10.0 mi North 18.4 mph - N/A   Overcast
8:30 AM 26.6 °F 12.7 °F 15.8 °F 64% 30.63 in 10.0 mi North 20.7 mph 24.2 mph N/A   Overcast
8:50 AM 26.6 °F 12.7 °F 15.8 °F 64% 30.61 in 10.0 mi North 20.7 mph 26.5 mph N/A   Overcast
9:10 AM 26.6 °F 13.4 °F 17.6 °F 69% 30.62 in 9.0 mi North 18.4 mph 25.3 mph N/A Rain Light Freezing Rain
9:30 AM 26.6 °F 13.8 °F 17.6 °F 69% 30.64 in 10.0 mi North 17.3 mph - N/A Rain Light Freezing Rain
9:50 AM 26.6 °F 13.1 °F 17.6 °F 69% 30.67 in 10.0 mi North 19.6 mph 25.3 mph N/A Rain Light Freezing Rain
10:10 AM 24.8 °F 11.9 °F 19.4 °F 80% 30.66 in 9.0 mi North 16.1 mph - N/A   Overcast
10:30 AM 24.8 °F 11.1 °F 19.4 °F 80% 30.65 in 10.0 mi NNW 18.4 mph - N/A   Overcast
10:50 AM 24.8 °F 10.7 °F 19.4 °F 80% 30.66 in 10.0 mi North 19.6 mph 27.6 mph N/A   Overcast
11:10 AM 24.8 °F 10.7 °F 19.4 °F 80% 30.65 in 10.0 mi North 19.6 mph 25.3 mph N/A   Overcast
11:30 AM 24.8 °F 11.1 °F 19.4 °F 80% 30.65 in 10.0 mi NNW 18.4 mph 23.0 mph N/A   Overcast
11:50 AM 24.8 °F 11.9 °F 19.4 °F 80% 30.64 in 10.0 mi North 16.1 mph 21.9 mph N/A   Overcast
12:10 PM 26.6 °F 15.7 °F 19.4 °F 74% 30.64 in 10.0 mi North 12.7 mph - N/A   Overcast
12:30 PM 26.6 °F 15.2 °F 19.4 °F 74% 30.64 in 10.0 mi NNW 13.8 mph - N/A   Overcast
12:50 PM 24.8 °F 11.1 °F 19.4 °F 80% 30.63 in 6.0 mi NNW 18.4 mph 23.0 mph N/A   Overcast
1:10 PM 26.6 °F 13.1 °F 19.4 °F 74% 30.62 in 10.0 mi NNW 19.6 mph - N/A   Overcast
1:30 PM 24.8 °F 11.1 °F 19.4 °F 80% 30.63 in 10.0 mi North 18.4 mph - N/A   Overcast
1:50 PM 26.6 °F 13.8 °F 19.4 °F 74% 30.60 in 6.0 mi North 17.3 mph 23.0 mph N/A Rain Light Freezing Rain
2:10 PM 26.6 °F 14.3 °F 23.0 °F 86% 30.60 in 6.0 mi NNW 16.1 mph 23.0 mph N/A   Mostly Cloudy
2:30 PM 26.6 °F 13.4 °F 21.2 °F 80% 30.60 in 10.0 mi NNW 18.4 mph 26.5 mph N/A   Overcast
2:50 PM 28.4 °F 16.6 °F 19.4 °F 69% 30.59 in 10.0 mi North 16.1 mph 20.7 mph N/A   Overcast
3:10 PM 28.4 °F 15.8 °F 19.4 °F 69% 30.59 in 10.0 mi North 18.4 mph 23.0 mph N/A   Overcast
3:30 PM 28.4 °F 17.0 °F 17.6 °F 64% 30.59 in 10.0 mi North 15.0 mph 18.4 mph N/A   Overcast
3:50 PM 28.4 °F 18.0 °F 15.8 °F 59% 30.60 in 10.0 mi North 12.7 mph - N/A   Overcast
4:10 PM 28.4 °F 16.2 °F 14.0 °F 55% 30.60 in 10.0 mi North 17.3 mph - N/A   Overcast
4:30 PM 30.2 °F 19.3 °F 14.0 °F 51% 30.60 in 10.0 mi North 15.0 mph 23.0 mph N/A   Overcast
4:50 PM 30.2 °F 18.5 °F 14.0 °F 51% 30.59 in 10.0 mi North 17.3 mph 20.7 mph N/A   Overcast
5:10 PM 30.2 °F 20.2 °F 14.0 °F 51% 30.60 in 10.0 mi North 12.7 mph - N/A   Overcast
5:30 PM 28.4 °F 17.0 °F 12.2 °F 51% 30.59 in 10.0 mi North 15.0 mph - N/A   Overcast
5:50 PM 28.4 °F 17.0 °F 12.2 °F 51% 30.59 in 10.0 mi North 15.0 mph 18.4 mph N/A   Overcast
6:10 PM 30.2 °F 20.8 °F 14.0 °F 51% 30.59 in 10.0 mi North 11.5 mph 18.4 mph N/A   Overcast
6:30 PM 30.2 °F 21.3 °F 14.0 °F 51% 30.59 in 10.0 mi North 10.4 mph - N/A   Overcast
6:50 PM 30.2 °F 20.2 °F 14.0 °F 51% 30.59 in 10.0 mi North 12.7 mph 17.3 mph N/A   Overcast
7:10 PM 30.2 °F 20.8 °F 14.0 °F 51% 30.60 in 10.0 mi North 11.5 mph - N/A   Overcast
7:30 PM 30.2 °F 20.2 °F 12.2 °F 47% 30.60 in 10.0 mi North 12.7 mph - N/A   Overcast
7:50 PM 30.2 °F 20.2 °F 12.2 °F 47% 30.59 in 10.0 mi North 12.7 mph - N/A   Overcast
8:10 PM 30.2 °F 19.3 °F 12.2 °F 47% 30.60 in 10.0 mi North 15.0 mph - N/A   Overcast
8:30 PM 30.2 °F 18.9 °F 12.2 °F 47% 30.60 in 10.0 mi North 16.1 mph - N/A   Overcast
8:50 PM 30.2 °F 19.3 °F 14.0 °F 51% 30.60 in 10.0 mi North 15.0 mph - N/A   Overcast
9:10 PM 30.2 °F 20.2 °F 14.0 °F 51% 30.61 in 10.0 mi North 12.7 mph - N/A Rain Light Freezing Rain
9:30 PM 30.2 °F 19.8 °F 14.0 °F 51% 30.62 in 10.0 mi North 13.8 mph - N/A   Overcast
9:50 PM 30.2 °F 19.8 °F 14.0 °F 51% 30.61 in 10.0 mi North 13.8 mph - N/A   Overcast
10:10 PM 32.0 °F 22.5 °F 14.0 °F 48% 30.62 in 10.0 mi North 12.7 mph 16.1 mph N/A   Mostly Cloudy
10:30 PM 32.0 °F 22.5 °F 14.0 °F 48% 30.62 in 10.0 mi North 12.7 mph - N/A   Overcast
10:50 PM 32.0 °F 22.1 °F 14.0 °F 48% 30.62 in 10.0 mi North 13.8 mph - N/A Rain Light Rain
11:10 PM 32.0 °F 23.0 °F 12.2 °F 44% 30.63 in 10.0 mi North 11.5 mph - N/A Rain Light Rain
11:30 PM 32.0 °F 22.5 °F 14.0 °F 48% 30.63 in 10.0 mi North 12.7 mph - N/A   Mostly Cloudy
11:50 PM 32.0 °F 22.5 °F 14.0 °F 48% 30.63 in 10.0 mi North 12.7 mph - N/A Rain Light Rain